ボリソフ彗星

2I/Borisov

English version
Home page
Updated on August 15, 2020

---------------------------------------------------------------------

・ プロフィール

符号 2I/2019 Q4
発見日 2019年8月30日
発見光度 17.8等
発見者 Gennady Borisov (MARGO observatory near Nauchnij, Crimea)

・ 写真集

・ 軌道要素

Epoch 2019 Dec. 23.0 TT = JDT 2458840.5
T 2019 Dec. 8.55458 TT                                  Bell
q   2.0065696            (2000.0)            P               Q
z  -1.1745459      Peri.  209.12514     -0.81468717     -0.19308770
 +/-0.0000102      Node   308.14821     +0.56666630     -0.46537332
e   3.3568081      Incl.   44.05275     -0.12318327     -0.86379674
From 2787 observations 2018 Dec. 13-2020 Feb. 27, mean residual 0".9.

・ 星図

・ 光度変化

        H = 12.3  G = 0.15                [    ,-110]  (              〜2019年 8月20日)
        m1 = 10.5 + 5 logΔ + 10.0 log r  [-110,    ]  (2019年 8月20日〜              )

---------------------------------------------------------------------

軌道要素はM.P.E.C. 2020-E26に掲載されたものです。
星図はステラナビゲータ Ver.10 (アストロアーツ) で作成したものです。
光度グラフはComet for Windowsで作成したものです。

---------------------------------------------------------------------

Copyright(C) Seiichi Yoshida (comet@aerith.net). All rights reserved.